This is the latest recevied weather packets stored in our database for station/object SP1BMW-13. If no packets are shown the sender has not sent any weather packets the latest 10 day(s).
| Time | Temp. | Humidity | Pressure | Rain* | Wind** | Luminosity | Snow |
|---|---|---|---|---|---|---|---|
| 1787933537 | 22.78° C | 67% | 1007.1 hPa | 0 mm | 1.79 m/s, 31° | 25 W/m² | - |
| 1787933477 | 22.78° C | 67% | 1007.5 hPa | 0 mm | 0.89 m/s, 22° | 26 W/m² | - |
| 1787933417 | 22.78° C | 66% | 1007.4 hPa | 0 mm | 1.34 m/s, 31° | 27 W/m² | - |
| 1787933357 | 22.78° C | 66% | 1007.5 hPa | 0 mm | 2.24 m/s, 37° | 29 W/m² | - |
| 1787933297 | 22.78° C | 66% | 1007.4 hPa | 0 mm | 1.34 m/s, 79° | 31 W/m² | - |
| 1787933238 | 22.78° C | 66% | 1007.5 hPa | 0 mm | 0.89 m/s, 70° | 34 W/m² | - |
| 1787933177 | 22.78° C | 66% | 1007.4 hPa | 0 mm | 0.45 m/s, 28° | 40 W/m² | - |
| 1787933117 | 22.78° C | 66% | 1007.4 hPa | 0 mm | 0.89 m/s, 126° | 47 W/m² | - |
| 1787933058 | 22.78° C | 65% | 1007.5 hPa | 0 mm | 0.89 m/s, 44° | 53 W/m² | - |
| 1787932998 | 22.78° C | 65% | 1007.6 hPa | 0 mm | 0.89 m/s, 41° | 58 W/m² | - |
| 1787932938 | 22.78° C | 64% | 1007.4 hPa | 0 mm | 1.79 m/s, 30° | 61 W/m² | - |
| 1787932877 | 22.78° C | 64% | 1007.6 hPa | 0 mm | 1.34 m/s, 51° | 62 W/m² | - |
| 1787932818 | 23.33° C | 65% | 1007.4 hPa | 0 mm | 0.89 m/s, 45° | 62 W/m² | - |
| 1787932757 | 23.33° C | 64% | 1007.6 hPa | 0 mm | 0.45 m/s, 59° | 64 W/m² | - |
| 1787932697 | 23.33° C | 64% | 1007.8 hPa | 0 mm | 1.79 m/s, 39° | 66 W/m² | - |
| 1787932637 | 23.33° C | 64% | 1007.6 hPa | 0 mm | 1.79 m/s, 44° | 70 W/m² | - |
| 1787932578 | 23.33° C | 63% | 1007.9 hPa | 0 mm | 1.34 m/s, 68° | 72 W/m² | - |
| 1787932517 | 23.33° C | 63% | 1007.6 hPa | 0 mm | 0.89 m/s, 44° | 77 W/m² | - |
| 1787932457 | 23.33° C | 63% | 1007.9 hPa | 0 mm | 1.34 m/s, 83° | 81 W/m² | - |
| 1787932398 | 23.33° C | 63% | 1008 hPa | 0 mm | 1.34 m/s, 85° | 86 W/m² | - |
| 1787932337 | 23.33° C | 63% | 1008 hPa | 0 mm | 0.89 m/s, 65° | 89 W/m² | - |
| 1787932278 | 23.33° C | 62% | 1008 hPa | 0 mm | 0.89 m/s, 51° | 93 W/m² | - |
| 1787932217 | 23.33° C | 62% | 1007.8 hPa | 0 mm | 1.79 m/s, 20° | 94 W/m² | - |
| 1787932158 | 23.33° C | 62% | 1008.1 hPa | 0 mm | 0.89 m/s, 82° | 93 W/m² | - |
| 1787932097 | 23.33° C | 62% | 1008.2 hPa | 0 mm | 1.79 m/s, 32° | 90 W/m² | - |
* Rain latest hour (hover to see other rain measurements)
** Current wind speed in m/s (hover to see current wind gust speed)